When you browse on this site, cookies collect data to enhance your experience and personalize the content and advertising you see.
Visit our Privacy Policy to learn more. By continuing to use the site, you agree to this use of cookies and data.
  • en Suisse
  • Liste des pays
  • À 7 jours
  • Température de l'eau
  • Carte météo
  • Widgets météo
  • user-avatar
    Se connecter

    Météo par heure à Kolomenskoe

    Ce jour, 21 Août, Mercredi

    Heure Température Précipitation Vent Pression Humidité
    00:00 +18°C° 0 mm 0 m/s 749 mmHg 74%
    01:00 +18°C° 0 mm 0 m/s 749 mmHg 75%
    02:00 +18°C° 0 mm 0 m/s 750 mmHg 76%
    03:00 +18°C° 0 mm 0 m/s 750 mmHg 77%
    04:00 +19°C° 0 mm 1 m/s 750 mmHg 78%
    05:00 +19°C° 0 mm 1 m/s 750 mmHg 79%
    06:00 +19°C° 0 mm 1 m/s 750 mmHg 80%
    07:00 +21°C° 0 mm 1 m/s 750 mmHg 75%
    08:00 +22°C° 0 mm 1 m/s 750 mmHg 71%
    09:00 +24°C° 0 mm 1 m/s 750 mmHg 67%
    10:00 +25°C° 0 mm 1 m/s 750 mmHg 64%
    11:00 +26°C° 0 mm 1 m/s 750 mmHg 60%
    12:00 +27°C° 0 mm 1 m/s 750 mmHg 57%
    13:00 +28°C° 0 mm 1 m/s 750 mmHg 56%
    14:00 +28°C° 0 mm 1 m/s 750 mmHg 54%
    15:00 +29°C° 0 mm 2 m/s 750 mmHg 53%
    16:00 +28°C° 0 mm 2 m/s 749 mmHg 56%
    17:00 +28°C° 0 mm 2 m/s 749 mmHg 60%
    18:00 +27°C° 0 mm 2 m/s 749 mmHg 63%
    19:00 +26°C° 0 mm 2 m/s 749 mmHg 67%
    20:00 +24°C° 0 mm 2 m/s 749 mmHg 71%
    21:00 +23°C° 0 mm 1 m/s 749 mmHg 75%
    22:00 +23°C° 0 mm 1 m/s 749 mmHg 78%
    23:00 +22°C° 0 mm 1 m/s 749 mmHg 80%

    Demain, 22 Août, Jeudi

    Heure Température Précipitation Vent Pression Humidité
    00:00 +22°C° 0 mm 1 m/s 749 mmHg 82%
    01:00 +21°C° 0 mm 1 m/s 749 mmHg 83%
    02:00 +21°C° 0 mm 1 m/s 748 mmHg 85%
    03:00 +21°C° 0 mm 1 m/s 748 mmHg 86%
    04:00 +20°C° 0 mm 1 m/s 748 mmHg 87%
    05:00 +20°C° 0 mm 1 m/s 748 mmHg 87%
    06:00 +20°C° 0 mm 1 m/s 748 mmHg 88%
    07:00 +21°C° 0 mm 1 m/s 748 mmHg 82%
    08:00 +23°C° 0 mm 1 m/s 748 mmHg 77%
    09:00 +25°C° 0 mm 1 m/s 748 mmHg 71%
    10:00 +26°C° 0 mm 1 m/s 748 mmHg 67%
    11:00 +27°C° 0 mm 1 m/s 748 mmHg 63%
    12:00 +28°C° 0 mm 1 m/s 747 mmHg 58%
    13:00 +28°C° 0 mm 1 m/s 747 mmHg 56%
    14:00 +29°C° 0 mm 1 m/s 747 mmHg 54%
    15:00 +29°C° 0 mm 1 m/s 747 mmHg 52%
    16:00 +29°C° 0 mm 1 m/s 747 mmHg 56%
    17:00 +28°C° 0 mm 1 m/s 747 mmHg 60%
    18:00 +28°C° 0 mm 2 m/s 747 mmHg 64%
    19:00 +26°C° 0.2 mm 3 m/s 747 mmHg 71%
    20:00 +23°C° 0.2 mm 4 m/s 748 mmHg 78%
    21:00 +21°C° 0.2 mm 5 m/s 748 mmHg 86%
    22:00 +20°C° 0 mm 5 m/s 748 mmHg 87%
    23:00 +19°C° 0 mm 5 m/s 749 mmHg 88%

    Après-demain, 23 Août, Vendredi

    Heure Température Précipitation Vent Pression Humidité
    00:00 +16°C° 0 mm 6 m/s 749 mmHg 89%
    01:00 +16°C° 0 mm 5 m/s 749 mmHg 88%
    02:00 +16°C° 0 mm 5 m/s 749 mmHg 87%
    03:00 +15°C° 0 mm 5 m/s 750 mmHg 87%
    04:00 +15°C° 0 mm 5 m/s 750 mmHg 87%
    05:00 +15°C° 0 mm 5 m/s 750 mmHg 88%
    06:00 +14°C° 0 mm 4 m/s 750 mmHg 89%
    07:00 +15°C° 0 mm 5 m/s 750 mmHg 84%
    08:00 +16°C° 0 mm 5 m/s 751 mmHg 79%
    09:00 +17°C° 0 mm 5 m/s 751 mmHg 74%
    10:00 +19°C° 0 mm 5 m/s 751 mmHg 70%
    11:00 +20°C° 0 mm 5 m/s 751 mmHg 67%
    12:00 +21°C° 0 mm 5 m/s 751 mmHg 63%
    13:00 +21°C° 0 mm 5 m/s 751 mmHg 61%
    14:00 +22°C° 0 mm 5 m/s 751 mmHg 60%
    15:00 +22°C° 0 mm 5 m/s 751 mmHg 58%
    16:00 +21°C° 0 mm 4 m/s 751 mmHg 61%
    17:00 +21°C° 0 mm 4 m/s 751 mmHg 65%
    18:00 +20°C° 0 mm 3 m/s 751 mmHg 68%
    19:00 +19°C° 0 mm 3 m/s 751 mmHg 71%
    20:00 +18°C° 0 mm 3 m/s 751 mmHg 75%
    21:00 +16°C° 0 mm 3 m/s 751 mmHg 78%
    22:00 +16°C° 0 mm 3 m/s 751 mmHg 79%
    23:00 +15°C° 0 mm 2 m/s 751 mmHg 81%

    24 Août, Samedi

    Heure Température Précipitation Vent Pression Humidité
    00:00 +15°C° 0 mm 2 m/s 751 mmHg 82%
    01:00 +14°C° 0 mm 2 m/s 751 mmHg 82%
    02:00 +14°C° 0 mm 2 m/s 751 mmHg 81%
    03:00 +14°C° 0 mm 2 m/s 751 mmHg 81%
    04:00 +14°C° 0 mm 2 m/s 751 mmHg 81%
    05:00 +13°C° 0 mm 2 m/s 752 mmHg 82%
    06:00 +13°C° 0 mm 2 m/s 752 mmHg 82%
    07:00 +15°C° 0 mm 2 m/s 752 mmHg 76%
    08:00 +17°C° 0 mm 2 m/s 752 mmHg 70%
    09:00 +19°C° 0 mm 2 m/s 752 mmHg 64%
    10:00 +20°C° 0 mm 2 m/s 752 mmHg 59%
    11:00 +22°C° 0 mm 1 m/s 752 mmHg 54%
    12:00 +23°C° 0 mm 1 m/s 752 mmHg 48%
    13:00 +24°C° 0 mm 1 m/s 752 mmHg 47%
    14:00 +24°C° 0 mm 1 m/s 751 mmHg 45%
    15:00 +24°C° 0 mm 1 m/s 751 mmHg 43%
    16:00 +24°C° 0 mm 1 m/s 751 mmHg 47%
    17:00 +24°C° 0 mm 1 m/s 751 mmHg 51%
    18:00 +23°C° 0 mm 1 m/s 750 mmHg 55%
    19:00 +22°C° 0 mm 1 m/s 750 mmHg 58%
    20:00 +18°C° 0 mm 0 m/s 750 mmHg 61%
    21:00 +16°C° 0 mm 0 m/s 750 mmHg 64%
    22:00 +16°C° 0 mm 0 m/s 750 mmHg 66%
    23:00 +16°C° 0 mm 0 m/s 750 mmHg 67%

    25 Août, Dimanche

    Heure Température Précipitation Vent Pression Humidité
    00:00 +15°C° 0 mm 0 m/s 750 mmHg 69%
    01:00 +16°C° 0 mm 1 m/s 750 mmHg 70%
    02:00 +16°C° 0 mm 1 m/s 750 mmHg 71%
    03:00 +15°C° 0 mm 2 m/s 749 mmHg 72%
    04:00 +15°C° 0 mm 2 m/s 749 mmHg 74%
    05:00 +15°C° 0 mm 2 m/s 749 mmHg 76%
    06:00 +14°C° 0 mm 2 m/s 749 mmHg 78%
    07:00 +16°C° 0 mm 2 m/s 749 mmHg 74%
    08:00 +18°C° 0 mm 2 m/s 749 mmHg 70%
    09:00 +19°C° 0 mm 2 m/s 749 mmHg 66%
    10:00 +20°C° 0 mm 3 m/s 749 mmHg 62%
    11:00 +22°C° 0 mm 3 m/s 749 mmHg 58%
    12:00 +24°C° 0 mm 3 m/s 749 mmHg 54%
    13:00 +24°C° 0 mm 3 m/s 748 mmHg 54%
    14:00 +24°C° 0 mm 3 m/s 748 mmHg 53%
    15:00 +25°C° 0 mm 4 m/s 748 mmHg 53%
    16:00 +23°C° 0.1 mm 4 m/s 748 mmHg 59%
    17:00 +22°C° 0.1 mm 3 m/s 748 mmHg 64%
    18:00 +21°C° 0.1 mm 3 m/s 748 mmHg 70%
    19:00 +20°C° 0.1 mm 3 m/s 748 mmHg 76%
    20:00 +19°C° 0.1 mm 3 m/s 748 mmHg 83%
    21:00 +17°C° 0.1 mm 3 m/s 748 mmHg 89%
    22:00 +16°C° 0 mm 3 m/s 749 mmHg 89%
    23:00 +16°C° 0 mm 3 m/s 749 mmHg 89%

    26 Août, Lundi

    Heure Température Précipitation Vent Pression Humidité
    00:00 +14°C° 0 mm 3 m/s 750 mmHg 88%
    01:00 +13°C° 0 mm 3 m/s 750 mmHg 89%
    02:00 +12°C° 0 mm 3 m/s 750 mmHg 90%
    03:00 +12°C° 0 mm 3 m/s 751 mmHg 92%
    04:00 +11°C° 0 mm 3 m/s 751 mmHg 93%
    05:00 +11°C° 0 mm 3 m/s 751 mmHg 94%
    06:00 +10°C° 0 mm 2 m/s 752 mmHg 95%
    07:00 +12°C° 0 mm 3 m/s 752 mmHg 89%
    08:00 +13°C° 0 mm 3 m/s 752 mmHg 82%
    09:00 +14°C° 0 mm 4 m/s 753 mmHg 76%
    10:00 +17°C° 0 mm 4 m/s 753 mmHg 70%
    11:00 +18°C° 0 mm 4 m/s 753 mmHg 65%
    12:00 +19°C° 0 mm 4 m/s 753 mmHg 59%
    13:00 +19°C° 0 mm 3 m/s 753 mmHg 56%
    14:00 +20°C° 0 mm 3 m/s 753 mmHg 53%
    15:00 +20°C° 0 mm 3 m/s 753 mmHg 50%
    16:00 +20°C° 0 mm 3 m/s 753 mmHg 54%
    17:00 +19°C° 0 mm 2 m/s 753 mmHg 57%
    18:00 +19°C° 0 mm 2 m/s 753 mmHg 61%
    19:00 +17°C° 0 mm 2 m/s 753 mmHg 64%
    20:00 +15°C° 0 mm 2 m/s 753 mmHg 68%
    21:00 +14°C° 0 mm 2 m/s 753 mmHg 71%
    22:00 +13°C° 0 mm 1 m/s 753 mmHg 72%
    23:00 +13°C° 0 mm 1 m/s 753 mmHg 74%
    Voir plus